Accueil
METAR-TAF:

METAR-TAF

Aéroports :

Mackall Army Airfield

Camp Mackall, Caroline du Nord, États-Unis

latitude: 35-02N, longitude: 079-30W, altitude: 115 m

Observation

Le bulletin a été fait il y a 1 heure et 21 minutes, à 20:56 UTC
Vent 12 kt de ouest/nord-ouest
Température 12°C
Humidité 30%
Pression 1015 hPa
Visibilité: 16.1 km
Nuages fragmentés à une hauteur de 8500 ft

METAR: KHFF 282056Z AUTO 29012KT 10SM BKN085 12/M05 A2996 RMK AO2 SLP163 T01221046 56024 $

Heure: 17:17 (22:17 UTC)


TAF: absent

Observations et prévisions météorologiques de plus de 4000 aéroports (messages METAR et TAF).

Les stations disponibles sont représentées par des disques jaunes et rouges sur la carte.

Passer la souris dessus pour voir le nom de la station.

Cliquer dessus pour voir les observations et prévisions météorologiques.

Pour changer de carte: cliquez sur les boutons verts avec une croix noire pour zoomer, sur le bouton vert avec un tiret pour effectuer un zoom arrière, ou sur les flèches vertes pour les cartes adjacentes.


METAR-TAF: